Time,TemperatureF,DewpointF,PressureIn,WindDirection,WindDirectionDegrees,WindSpeedMPH,WindSpeedGustMPH,Humidity,HourlyPrecipIn,Conditions,Clouds,dailyrainin,SoftwareType,DateUTC
2013-02-27 00:01:00,4.0,-7.0,30.43,SSW,194,1.0,-999.0,60,-99.99,,,-99.99,,2013-02-27 07:01:00,
2013-02-27 00:12:00,4.0,-7.0,30.43,SSW,194,1.0,-999.0,60,-99.99,,,-99.99,,2013-02-27 07:12:00,
2013-02-27 00:21:00,4.0,-7.0,30.44,ENE,74,1.0,-999.0,60,-99.99,,,-99.99,,2013-02-27 07:21:00,
2013-02-27 00:31:00,4.0,-7.0,30.44,SW,218,0.0,-999.0,59,-99.99,,,-99.99,,2013-02-27 07:31:00,
2013-02-27 00:41:00,4.0,-7.0,30.44,SW,218,0.0,-999.0,59,-99.99,,,-99.99,,2013-02-27 07:41:00,
2013-02-27 00:52:00,3.0,-8.0,30.45,West,273,0.0,-999.0,59,-99.99,,,-99.99,,2013-02-27 07:52:00,
2013-02-27 01:01:00,3.0,-8.0,30.45,West,279,0.0,-999.0,59,-99.99,,,-99.99,,2013-02-27 08:01:00,
2013-02-27 01:11:00,3.0,-8.0,30.45,West,279,0.0,-999.0,59,-99.99,,,-99.99,,2013-02-27 08:11:00,
2013-02-27 01:21:00,3.0,-8.0,30.45,NE,48,1.0,-999.0,59,-99.99,,,-99.99,,2013-02-27 08:21:00,
2013-02-27 01:32:00,4.0,-7.0,30.45,SSE,152,1.0,-999.0,58,-99.99,,,-99.99,,2013-02-27 08:32:00,
2013-02-27 01:41:00,4.0,-7.0,30.45,SSE,152,1.0,-999.0,58,-99.99,,,-99.99,,2013-02-27 08:41:00,
2013-02-27 01:53:00,4.0,-7.0,30.45,South,184,1.0,-999.0,58,-99.99,,,-99.99,,2013-02-27 08:53:00,
2013-02-27 02:01:00,3.0,-8.0,30.47,SSW,192,1.0,-999.0,60,-99.99,,,-99.99,,2013-02-27 09:01:00,
2013-02-27 02:11:00,3.0,-8.0,30.47,SSW,192,1.0,-999.0,60,-99.99,,,-99.99,,2013-02-27 09:11:00,
2013-02-27 02:21:00,3.0,-8.0,30.47,SE,129,0.0,-999.0,60,-99.99,,,-99.99,,2013-02-27 09:21:00,
2013-02-27 02:32:00,2.0,-8.0,30.47,SE,135,0.0,-999.0,61,-99.99,,,-99.99,,2013-02-27 09:32:00,
2013-02-27 02:41:00,2.0,-8.0,30.47,SE,135,0.0,-999.0,61,-99.99,,,-99.99,,2013-02-27 09:41:00,
2013-02-27 02:52:00,2.0,-8.0,30.49,South,186,1.0,-999.0,61,-99.99,,,-99.99,,2013-02-27 09:52:00,
2013-02-27 03:01:00,2.0,-8.0,30.48,South,186,0.0,-999.0,62,-99.99,,,-99.99,,2013-02-27 10:01:00,
2013-02-27 03:12:00,2.0,-8.0,30.48,South,186,0.0,-999.0,62,-99.99,,,-99.99,,2013-02-27 10:12:00,
2013-02-27 03:22:00,2.0,-8.0,30.49,East,95,0.0,-999.0,62,-99.99,,,-99.99,,2013-02-27 10:22:00,
2013-02-27 03:32:00,1.0,-9.0,30.50,East,95,0.0,-999.0,62,-99.99,,,-99.99,,2013-02-27 10:32:00,
2013-02-27 03:42:00,1.0,-9.0,30.50,East,95,0.0,-999.0,62,-99.99,,,-99.99,,2013-02-27 10:42:00,
2013-02-27 03:53:00,1.0,-9.0,30.51,ENE,74,1.0,-999.0,63,-99.99,,,-99.99,,2013-02-27 10:53:00,
2013-02-27 04:02:00,1.0,-9.0,30.51,ENE,72,0.0,-999.0,63,-99.99,,,-99.99,,2013-02-27 11:02:00,
2013-02-27 04:12:00,1.0,-9.0,30.51,ENE,72,0.0,-999.0,63,-99.99,,,-99.99,,2013-02-27 11:12:00,
2013-02-27 04:22:00,1.0,-9.0,30.52,ENE,67,1.0,-999.0,62,-99.99,,,-99.99,,2013-02-27 11:22:00,
2013-02-27 04:32:00,1.0,-9.0,30.53,ENE,67,0.0,-999.0,62,-99.99,,,-99.99,,2013-02-27 11:32:00,
2013-02-27 04:41:00,1.0,-9.0,30.53,ENE,67,0.0,-999.0,62,-99.99,,,-99.99,,2013-02-27 11:41:00,
2013-02-27 04:52:00,1.0,-9.0,30.53,ENE,67,1.0,-999.0,63,-99.99,,,-99.99,,2013-02-27 11:52:00,
2013-02-27 05:02:00,1.0,-8.0,30.54,ENE,74,1.0,-999.0,64,-99.99,,,-99.99,,2013-02-27 12:02:00,
2013-02-27 05:12:00,1.0,-8.0,30.54,ENE,74,1.0,-999.0,64,-99.99,,,-99.99,,2013-02-27 12:12:00,
2013-02-27 05:22:00,1.0,-8.0,30.55,ENE,74,0.0,-999.0,65,-99.99,,,-99.99,,2013-02-27 12:22:00,
2013-02-27 05:32:00,0.0,-9.0,30.55,ENE,74,0.0,-999.0,65,-99.99,,,-99.99,,2013-02-27 12:32:00,
2013-02-27 05:42:00,0.0,-9.0,30.55,ENE,74,0.0,-999.0,65,-99.99,,,-99.99,,2013-02-27 12:42:00,
2013-02-27 05:52:00,0.0,-9.0,30.56,ENE,74,0.0,-999.0,66,-99.99,,,-99.99,,2013-02-27 12:52:00,
2013-02-27 06:02:00,0.0,-9.0,30.56,ENE,74,0.0,-999.0,65,-99.99,,,-99.99,,2013-02-27 13:02:00,
2013-02-27 06:11:00,0.0,-9.0,30.56,ENE,74,0.0,-999.0,65,-99.99,,,-99.99,,2013-02-27 13:11:00,
2013-02-27 06:22:00,0.0,-9.0,30.57,ENE,74,0.0,-999.0,66,-99.99,,,-99.99,,2013-02-27 13:22:00,
2013-02-27 06:32:00,-2.0,-10.0,30.57,ENE,74,0.0,-999.0,67,-99.99,,,-99.99,,2013-02-27 13:32:00,
2013-02-27 06:42:00,-2.0,-10.0,30.57,ENE,74,0.0,-999.0,67,-99.99,,,-99.99,,2013-02-27 13:42:00,
2013-02-27 06:52:00,-2.0,-9.0,30.58,ENE,74,0.0,-999.0,71,-99.99,,,-99.99,,2013-02-27 13:52:00,
2013-02-27 07:02:00,-3.0,-10.0,30.58,ENE,74,0.0,-999.0,70,-99.99,,,-99.99,,2013-02-27 14:02:00,
2013-02-27 07:12:00,-3.0,-10.0,30.58,ENE,74,0.0,-999.0,70,-99.99,,,-99.99,,2013-02-27 14:12:00,
2013-02-27 07:21:00,-3.0,-10.0,30.59,ENE,74,0.0,-999.0,70,-99.99,,,-99.99,,2013-02-27 14:21:00,
2013-02-27 07:32:00,-2.0,-9.0,30.60,ENE,74,0.0,-999.0,72,-99.99,,,-99.99,,2013-02-27 14:32:00,
2013-02-27 07:42:00,-2.0,-9.0,30.60,ENE,74,0.0,-999.0,72,-99.99,,,-99.99,,2013-02-27 14:42:00,
2013-02-27 07:52:00,-1.0,-8.0,30.61,ENE,74,0.0,-999.0,70,-99.99,,,-99.99,,2013-02-27 14:52:00,
2013-02-27 08:02:00,0.0,-8.0,30.62,ENE,75,0.0,-999.0,68,-99.99,,,-99.99,,2013-02-27 15:02:00,
2013-02-27 08:12:00,0.0,-8.0,30.62,ENE,75,0.0,-999.0,68,-99.99,,,-99.99,,2013-02-27 15:12:00,
2013-02-27 08:22:00,2.0,-7.0,30.63,ENE,77,0.0,-999.0,64,-99.99,,,-99.99,,2013-02-27 15:22:00,
2013-02-27 08:32:00,4.0,-6.0,30.63,West,266,1.0,-999.0,61,-99.99,,,-99.99,,2013-02-27 15:32:00,
2013-02-27 08:42:00,4.0,-6.0,30.63,West,266,1.0,-999.0,61,-99.99,,,-99.99,,2013-02-27 15:42:00,
2013-02-27 08:52:00,4.0,-6.0,30.63,West,266,1.0,-999.0,61,-99.99,,,-99.99,,2013-02-27 15:52:00,
2013-02-27 09:02:00,8.0,-6.0,30.63,West,275,2.0,-999.0,52,-99.99,,,-99.99,,2013-02-27 16:02:00,
2013-02-27 09:12:00,8.0,-6.0,30.63,West,275,2.0,-999.0,52,-99.99,,,-99.99,,2013-02-27 16:12:00,
2013-02-27 09:22:00,9.0,-5.0,30.63,WSW,238,1.0,-999.0,51,-99.99,,,-99.99,,2013-02-27 16:22:00,
2013-02-27 09:32:00,11.0,-4.0,30.63,West,269,2.0,-999.0,49,-99.99,,,-99.99,,2013-02-27 16:32:00,
2013-02-27 09:42:00,11.0,-4.0,30.63,West,269,2.0,-999.0,49,-99.99,,,-99.99,,2013-02-27 16:42:00,
2013-02-27 09:52:00,12.0,-4.0,30.64,West,276,2.0,-999.0,47,-99.99,,,-99.99,,2013-02-27 16:52:00,
2013-02-27 10:02:00,13.0,-4.0,30.64,SSW,202,2.0,-999.0,45,-99.99,,,-99.99,,2013-02-27 17:02:00,
2013-02-27 10:11:00,13.0,-4.0,30.64,SSW,202,2.0,-999.0,45,-99.99,,,-99.99,,2013-02-27 17:11:00,
2013-02-27 10:21:00,13.0,-4.0,30.63,SE,138,2.0,-999.0,45,-99.99,,,-99.99,,2013-02-27 17:21:00,
2013-02-27 10:32:00,13.0,-5.0,30.63,East,81,3.0,-999.0,44,-99.99,,,-99.99,,2013-02-27 17:32:00,
2013-02-27 10:42:00,13.0,-5.0,30.63,East,81,3.0,-999.0,44,-99.99,,,-99.99,,2013-02-27 17:42:00,
2013-02-27 10:52:00,14.0,-4.0,30.63,East,85,2.0,-999.0,43,-99.99,,,-99.99,,2013-02-27 17:52:00,
2013-02-27 11:01:00,14.0,-5.0,30.64,SSE,163,2.0,-999.0,42,-99.99,,,-99.99,,2013-02-27 18:01:00,
2013-02-27 11:11:00,14.0,-5.0,30.64,SSE,163,2.0,-999.0,42,-99.99,,,-99.99,,2013-02-27 18:11:00,
2013-02-27 11:22:00,14.0,-5.0,30.64,SSW,198,3.0,-999.0,41,-99.99,,,-99.99,,2013-02-27 18:22:00,
2013-02-27 11:32:00,16.0,-5.0,30.64,East,99,3.0,-999.0,39,-99.99,,,-99.99,,2013-02-27 18:32:00,
2013-02-27 11:42:00,16.0,-5.0,30.64,East,99,3.0,-999.0,39,-99.99,,,-99.99,,2013-02-27 18:42:00,
2013-02-27 11:52:00,16.0,-4.0,30.64,South,187,2.0,-999.0,40,-99.99,,,-99.99,,2013-02-27 18:52:00,
2013-02-27 12:01:00,16.0,-5.0,30.65,ENE,60,3.0,-999.0,38,-99.99,,,-99.99,,2013-02-27 19:01:00,
2013-02-27 12:12:00,16.0,-5.0,30.65,ENE,60,3.0,-999.0,38,-99.99,,,-99.99,,2013-02-27 19:12:00,
2013-02-27 12:21:00,16.0,-5.0,30.65,SE,140,2.0,-999.0,38,-99.99,,,-99.99,,2013-02-27 19:21:00,
2013-02-27 12:32:00,16.0,-6.0,30.64,SW,236,2.0,-999.0,37,-99.99,,,-99.99,,2013-02-27 19:32:00,
2013-02-27 12:42:00,16.0,-6.0,30.64,SW,236,2.0,-999.0,37,-99.99,,,-99.99,,2013-02-27 19:42:00,
2013-02-27 12:52:00,18.0,-3.0,30.64,WNW,292,2.0,-999.0,38,-99.99,,,-99.99,,2013-02-27 19:52:00,
2013-02-27 13:01:00,18.0,-3.0,30.63,SW,219,2.0,-999.0,39,-99.99,,,-99.99,,2013-02-27 20:01:00,
2013-02-27 13:11:00,18.0,-3.0,30.63,SW,219,2.0,-999.0,39,-99.99,,,-99.99,,2013-02-27 20:11:00,
2013-02-27 13:21:00,18.0,-2.0,30.63,West,277,3.0,-999.0,40,-99.99,,,-99.99,,2013-02-27 20:21:00,
2013-02-27 13:32:00,18.0,-1.0,30.61,SW,224,3.0,-999.0,42,-99.99,,,-99.99,,2013-02-27 20:32:00,
2013-02-27 13:42:00,18.0,-1.0,30.61,SW,224,3.0,-999.0,42,-99.99,,,-99.99,,2013-02-27 20:42:00,
2013-02-27 13:52:00,18.0,-1.0,30.61,SSW,204,2.0,-999.0,43,-99.99,,,-99.99,,2013-02-27 20:52:00,
2013-02-27 14:02:00,18.0,1.0,30.61,South,179,2.0,-999.0,46,-99.99,,,-99.99,,2013-02-27 21:02:00,
2013-02-27 14:11:00,18.0,1.0,30.61,South,179,2.0,-999.0,46,-99.99,,,-99.99,,2013-02-27 21:11:00,
2013-02-27 14:21:00,18.0,-1.0,30.61,West,275,3.0,-999.0,42,-99.99,,,-99.99,,2013-02-27 21:21:00,
2013-02-27 14:31:00,17.0,0.0,30.62,SW,231,3.0,-999.0,46,-99.99,,,-99.99,,2013-02-27 21:31:00,
2013-02-27 14:42:00,17.0,0.0,30.62,SW,231,3.0,-999.0,46,-99.99,,,-99.99,,2013-02-27 21:42:00,
2013-02-27 14:52:00,16.0,-1.0,30.61,WSW,254,3.0,-999.0,47,-99.99,,,-99.99,,2013-02-27 21:52:00,
2013-02-27 15:01:00,17.0,1.0,30.63,SSE,159,2.0,-999.0,48,-99.99,,,-99.99,,2013-02-27 22:01:00,
2013-02-27 15:11:00,17.0,1.0,30.63,SSE,159,2.0,-999.0,48,-99.99,,,-99.99,,2013-02-27 22:11:00,
2013-02-27 15:21:00,16.0,-2.0,30.62,WSW,250,3.0,-999.0,43,-99.99,,,-99.99,,2013-02-27 22:21:00,
2013-02-27 15:31:00,16.0,-2.0,30.62,ESE,106,2.0,-999.0,43,-99.99,,,-99.99,,2013-02-27 22:31:00,
2013-02-27 15:41:00,16.0,-2.0,30.62,ESE,106,2.0,-999.0,43,-99.99,,,-99.99,,2013-02-27 22:41:00,
2013-02-27 15:52:00,15.0,-2.0,30.62,SSW,192,3.0,-999.0,46,-99.99,,,-99.99,,2013-02-27 22:52:00,
2013-02-27 16:01:00,14.0,-2.0,30.62,SSE,154,1.0,-999.0,48,-99.99,,,-99.99,,2013-02-27 23:01:00,
2013-02-27 16:11:00,14.0,-2.0,30.62,SSE,154,1.0,-999.0,48,-99.99,,,-99.99,,2013-02-27 23:11:00,
2013-02-27 16:21:00,13.0,-4.0,30.61,North,350,1.0,-999.0,46,-99.99,,,-99.99,,2013-02-27 23:21:00,
2013-02-27 16:32:00,13.0,-4.0,30.61,East,101,2.0,-999.0,46,-99.99,,,-99.99,,2013-02-27 23:32:00,
2013-02-27 16:42:00,13.0,-4.0,30.61,East,101,2.0,-999.0,46,-99.99,,,-99.99,,2013-02-27 23:42:00,
2013-02-27 16:53:00,12.0,-5.0,30.61,SE,128,2.0,-999.0,46,-99.99,,,-99.99,,2013-02-27 23:53:00,
2013-02-27 17:01:00,12.0,-4.0,30.62,ESE,113,3.0,-999.0,48,-99.99,,,-99.99,,2013-02-28 00:01:00,
2013-02-27 17:11:00,12.0,-4.0,30.62,ESE,113,3.0,-999.0,48,-99.99,,,-99.99,,2013-02-28 00:11:00,
2013-02-27 17:21:00,11.0,-5.0,30.61,SSE,162,3.0,-999.0,48,-99.99,,,-99.99,,2013-02-28 00:21:00,
2013-02-27 17:32:00,10.0,-5.0,30.61,ESE,120,3.0,-999.0,50,-99.99,,,-99.99,,2013-02-28 00:32:00,
2013-02-27 17:42:00,10.0,-5.0,30.61,ESE,120,3.0,-999.0,50,-99.99,,,-99.99,,2013-02-28 00:42:00,
2013-02-27 17:52:00,10.0,-4.0,30.61,East,85,2.0,-999.0,51,-99.99,,,-99.99,,2013-02-28 00:52:00,
2013-02-27 18:01:00,9.0,-5.0,30.63,NNE,28,1.0,-999.0,52,-99.99,,,-99.99,,2013-02-28 01:01:00,
2013-02-27 18:11:00,9.0,-5.0,30.63,NNE,28,1.0,-999.0,52,-99.99,,,-99.99,,2013-02-28 01:11:00,
2013-02-27 18:21:00,9.0,-5.0,30.64,NE,51,2.0,-999.0,53,-99.99,,,-99.99,,2013-02-28 01:21:00,
2013-02-27 18:32:00,8.0,-5.0,30.64,North,5,1.0,-999.0,55,-99.99,,,-99.99,,2013-02-28 01:32:00,
2013-02-27 18:41:00,8.0,-5.0,30.64,North,5,1.0,-999.0,55,-99.99,,,-99.99,,2013-02-28 01:41:00,
2013-02-27 18:52:00,8.0,-4.0,30.65,NNW,336,2.0,-999.0,58,-99.99,,,-99.99,,2013-02-28 01:52:00,
2013-02-27 19:01:00,8.0,-3.0,30.64,North,360,2.0,-999.0,59,-99.99,,,-99.99,,2013-02-28 02:01:00,
2013-02-27 19:11:00,8.0,-3.0,30.64,North,360,2.0,-999.0,59,-99.99,,,-99.99,,2013-02-28 02:11:00,
2013-02-27 19:22:00,7.0,-4.0,30.66,NW,316,0.0,-999.0,59,-99.99,,,-99.99,,2013-02-28 02:22:00,
2013-02-27 19:31:00,7.0,-4.0,30.66,NNE,29,1.0,-999.0,61,-99.99,,,-99.99,,2013-02-28 02:31:00,
2013-02-27 19:41:00,7.0,-4.0,30.66,NNE,29,1.0,-999.0,61,-99.99,,,-99.99,,2013-02-28 02:41:00,
2013-02-27 19:52:00,7.0,-4.0,30.66,NNE,29,1.0,-999.0,61,-99.99,,,-99.99,,2013-02-28 02:52:00,
2013-02-27 20:01:00,6.0,-5.0,30.66,SE,146,1.0,-999.0,61,-99.99,,,-99.99,,2013-02-28 03:01:00,
2013-02-27 20:11:00,6.0,-5.0,30.66,SE,146,1.0,-999.0,61,-99.99,,,-99.99,,2013-02-28 03:11:00,
2013-02-27 20:21:00,6.0,-4.0,30.66,NNW,343,1.0,-999.0,63,-99.99,,,-99.99,,2013-02-28 03:21:00,
2013-02-27 20:31:00,6.0,-4.0,30.67,North,5,2.0,-999.0,62,-99.99,,,-99.99,,2013-02-28 03:31:00,
2013-02-27 20:42:00,6.0,-4.0,30.67,North,5,2.0,-999.0,62,-99.99,,,-99.99,,2013-02-28 03:42:00,
2013-02-27 20:52:00,6.0,-4.0,30.67,WNW,292,1.0,-999.0,62,-99.99,,,-99.99,,2013-02-28 03:52:00,
2013-02-27 21:01:00,6.0,-4.0,30.66,NNE,26,2.0,-999.0,62,-99.99,,,-99.99,,2013-02-28 04:01:00,
2013-02-27 21:11:00,6.0,-4.0,30.66,NNE,26,2.0,-999.0,62,-99.99,,,-99.99,,2013-02-28 04:11:00,
2013-02-27 21:21:00,6.0,-5.0,30.66,NNE,15,2.0,-999.0,61,-99.99,,,-99.99,,2013-02-28 04:21:00,
2013-02-27 21:31:00,6.0,-5.0,30.66,NNE,15,2.0,-999.0,61,-99.99,,,-99.99,,2013-02-28 04:31:00,
2013-02-27 21:42:00,6.0,-5.0,30.66,NNE,15,2.0,-999.0,61,-99.99,,,-99.99,,2013-02-28 04:42:00,
2013-02-27 21:52:00,5.0,-6.0,30.67,West,275,2.0,-999.0,60,-99.99,,,-99.99,,2013-02-28 04:52:00,
2013-02-27 22:01:00,5.0,-6.0,30.68,East,90,1.0,-999.0,59,-99.99,,,-99.99,,2013-02-28 05:01:00,
2013-02-27 22:11:00,5.0,-6.0,30.68,East,90,1.0,-999.0,59,-99.99,,,-99.99,,2013-02-28 05:11:00,
2013-02-27 22:22:00,4.0,-7.0,30.68,NE,40,1.0,-999.0,60,-99.99,,,-99.99,,2013-02-28 05:22:00,
2013-02-27 22:31:00,4.0,-7.0,30.68,NE,40,0.0,-999.0,59,-99.99,,,-99.99,,2013-02-28 05:31:00,
2013-02-27 22:42:00,4.0,-7.0,30.68,NE,40,0.0,-999.0,59,-99.99,,,-99.99,,2013-02-28 05:42:00,
2013-02-27 22:52:00,3.0,-8.0,30.68,NW,317,1.0,-999.0,59,-99.99,,,-99.99,,2013-02-28 05:52:00,
2013-02-27 23:01:00,3.0,-8.0,30.68,NW,317,1.0,-999.0,59,-99.99,,,-99.99,,2013-02-28 06:01:00,
2013-02-27 23:11:00,3.0,-8.0,30.68,NW,317,1.0,-999.0,59,-99.99,,,-99.99,,2013-02-28 06:11:00,
2013-02-27 23:22:00,2.0,-9.0,30.68,NW,318,0.0,-999.0,59,-99.99,,,-99.99,,2013-02-28 06:22:00,
2013-02-27 23:32:00,1.0,-10.0,30.68,NW,317,0.0,-999.0,59,-99.99,,,-99.99,,2013-02-28 06:32:00,
2013-02-27 23:42:00,1.0,-10.0,30.68,NW,317,0.0,-999.0,59,-99.99,,,-99.99,,2013-02-28 06:42:00,
2013-02-27 23:52:00,1.0,-10.0,30.67,North,11,1.0,-999.0,58,-99.99,,,-99.99,,2013-02-28 06:52:00,